Location: Peyton Hall Observatory
(40.3466°N, 74.6516°W)
Time: 18:06:30
(UTC-04:00)

ISS - All Passes

Search period start: 28 May 2016 00:00
Search period end: 07 June 2016 00:00
Orbit: 402 x 404 km, 51.6° (Epoch: 28 May)

Date Brightness Start Highest point End Pass type
(mag) Time Alt. Az. Time Alt. Az. Time Alt. Az.
28 May - 01:30:02 10° NNW 01:31:22 12° N 01:32:44 10° NNE visible
28 May - 03:05:52 10° NW 03:08:41 26° NNE 03:11:30 10° E visible
28 May - 04:42:08 10° WNW 04:45:13 41° SW 04:48:18 10° SSE visible
28 May - 21:20:51 10° SW 21:24:07 75° SE 21:27:22 10° NE visible
28 May - 22:58:22 10° WNW 23:00:51 20° NNW 23:03:21 10° NNE visible
29 May - 00:37:05 10° NNW 00:38:17 11° N 00:39:29 10° NNE visible
29 May - 02:13:20 10° NNW 02:15:44 19° NNE 02:18:08 10° ENE visible
29 May - 03:49:16 10° NW 03:52:32 85° SW 03:55:47 10° SE visible
29 May - 20:28:24 10° SSW 20:31:25 36° SE 20:34:28 10° ENE daylight
29 May - 22:05:01 10° W 22:07:55 28° NNW 22:10:49 10° NE visible
29 May - 23:43:46 10° NNW 23:45:11 12° N 23:46:37 10° NNE visible
30 May - 01:20:47 10° NNW 01:22:43 15° NNE 01:24:38 10° NE visible
30 May - 02:56:33 10° NW 02:59:46 49° NNE 03:02:56 10° ESE visible
30 May - 04:33:42 10° W 04:35:56 17° SW 04:38:10 10° S visible
30 May - 19:36:29 10° S 19:38:49 19° SE 19:41:12 10° E daylight
30 May - 21:11:53 10° WSW 21:15:02 46° NNW 21:18:13 10° NE visible
30 May - 22:50:14 10° NW 22:52:06 14° NNW 22:53:59 10° NNE visible
31 May - 00:28:11 10° NNW 00:29:38 12° N 00:31:06 10° NE visible
31 May - 02:03:58 10° NW 02:06:53 29° NNE 02:09:49 10° E visible
31 May - 03:40:22 10° WNW 03:43:21 33° SW 03:46:19 10° SSE visible
31 May - 20:18:59 10° SW 20:22:15 89° NNW 20:25:32 10° NE daylight
31 May - 21:56:43 10° WNW 21:59:05 18° NNW 22:01:26 10° NNE visible
31 May - 23:35:20 10° NNW 23:36:33 12° N 23:37:44 10° NNE visible
01 Jun - 01:11:25 10° NNW 01:13:57 20° NNE 01:16:29 10° ENE visible
01 Jun - 02:47:25 10° WNW 02:50:40 69° SW 02:53:54 10° SE visible
01 Jun - 19:26:25 10° SSW 19:29:32 44° SE 19:32:41 10° ENE daylight
01 Jun - 21:03:19 10° W 21:06:06 25° NNW 21:08:53 10° NNE visible
01 Jun - 22:42:06 10° NNW 22:43:25 12° N 22:44:45 10° NNE visible
02 Jun - 00:18:52 10° NNW 00:20:56 15° NNE 00:23:00 10° NE visible
02 Jun - 01:54:40 10° NW 01:57:55 60° NE 02:01:07 10° ESE visible
02 Jun - 03:32:11 10° W 03:34:00 14° SW 03:35:50 10° SSW night (unlit)
02 Jun - 18:34:17 10° S 18:36:55 22° SE 18:39:33 10° E daylight
02 Jun - 20:10:06 10° WSW 20:13:11 39° NNW 20:16:19 10° NE daylight
02 Jun - 21:48:36 10° NW 21:50:20 13° NNW 21:52:04 10° NNE visible
02 Jun - 23:26:17 10° NNW 23:27:52 13° N 23:29:27 10° NE visible
03 Jun - 01:02:02 10° NW 01:05:04 34° NNE 01:08:04 10° E visible
03 Jun - 02:38:36 10° WNW 02:41:26 27° SW 02:44:15 10° SSE night (unlit)
03 Jun - 17:43:08 10° SSE 17:44:21 12° SE 17:45:35 10° ESE daylight
03 Jun - 19:17:07 10° WSW 19:20:22 73° NW 19:23:38 10° NE daylight
03 Jun - 20:55:03 10° WNW 20:57:16 17° NNW 20:59:29 10° NNE visible
03 Jun - 22:33:30 10° NNW 22:34:45 12° N 22:36:00 10° NNE visible
04 Jun - 00:09:28 10° NNW 00:12:08 22° NNE 00:14:47 10° ENE visible
04 Jun - 01:45:34 10° WNW 01:48:46 56° SW 01:51:58 10° SE visible
04 Jun - 18:24:26 10° SW 18:27:38 56° SE 18:30:51 10° ENE daylight
04 Jun - 20:01:36 10° WNW 20:04:16 23° NNW 20:06:57 10° NNE daylight
04 Jun - 21:40:23 10° NNW 21:41:38 12° N 21:42:53 10° NNE visible
04 Jun - 23:16:54 10° NNW 23:19:08 17° NNE 23:21:20 10° ENE visible
05 Jun - 00:52:46 10° NW 00:56:02 73° NE 00:59:16 10° ESE visible
05 Jun - 02:30:51 10° WSW 02:32:03 12° SW 02:33:15 10° SSW night (unlit)
05 Jun - 17:32:09 10° SSW 17:34:58 27° SE 17:37:48 10° ENE daylight
05 Jun - 19:08:19 10° W 19:11:20 34° NNW 19:14:22 10° NE daylight
05 Jun - 20:46:56 10° NW 20:48:32 13° N 20:50:07 10° NNE daylight
05 Jun - 22:24:20 10° NNW 22:26:04 13° N 22:27:47 10° NE visible
06 Jun - 00:00:05 10° NW 00:03:12 39° NNE 00:06:17 10° ESE visible
06 Jun - 01:36:51 10° W 01:39:29 22° SW 01:42:06 10° S visible
06 Jun - 16:40:33 10° SSE 16:42:22 14° SE 16:44:13 10° E daylight
06 Jun - 18:15:15 10° WSW 18:18:28 60° NW 18:21:43 10° NE daylight
06 Jun - 19:53:22 10° NW 19:55:27 16° NNW 19:57:31 10° NNE daylight
06 Jun - 21:31:38 10° NNW 21:32:57 12° N 21:34:17 10° NNE visible
06 Jun - 23:07:30 10° NNW 23:10:17 25° NNE 23:13:03 10° E visible
